Wind_Speed
4 4 4 4 4 5 5 5 5 6 6 7 7 8 8 8 7 8 7 7 6 6 5 5 6 6 6 6 7 8 8 9 10 10 10 10 11 11 12 13 14 13 13
3 4 4 4 5 5 5 5 6 6 7 7 6 7 8 8 8 8 8 8 7 6 5 6 7 7 8 8 8 8 9 9 10 10 11 11 11 12 13 13 14 14 14
4 5 5 5 6 6 6 6 6 7 7 7 7 7 7 7 8 8 8 8 8 7 6 6 7 8 9 10 9 9 10 10 11 11 11 12 12 13 13 14 15 15 14
5 6 6 6 7 7 7 7 7 7 7 8 8 8 8 8 9 8 9 9 8 8 7 7 8 9 11 11 11 11 11 12 12 12 12 13 14 14 14 15 14 14 15
6 7 7 7 8 8 8 9 9 8 8 9 9 9 10 10 10 10 10 9 9 9 9 9 9 10 11 12 12 13 13 13 13 13 13 13 14 14 14 15 15 15 16
7 8 8 9 9 9 9 9 9 9 9 9 9 10 10 11 11 11 10 11 11 10 10 10 11 11 12 13 13 14 14 14 14 15 14 14 15 15 15 15 16 16 16
9 9 10 10 9 9 9 10 10 10 10 10 10 10 11 11 11 11 11 11 11 11 11 12 13 14 14 15 15 15 14 15 15 15 16 16 16 16 16 16 16 17 17
10 11 10 10 9 9 10 10 10 10 11 11 11 10 11 13 12 13 12 12 11 11 12 13 14 15 15 16 16 16 16 16 16 16 17 17 17 18 18 18 18 18 18
12 11 10 11 10 10 11 11 11 11 12 12 12 12 13 13 14 14 14 13 13 14 14 15 15 15 16 17 17 17 18 17 17 17 18 18 19 19 19 20 20 20 20
12 11 11 11 11 11 12 12 12 11 13 13 14 14 15 15 15 16 16 15 15 16 16 17 17 17 18 18 18 18 18 18 18 18 19 19 19 20 20 20 21 21 22
12 11 11 11 12 12 12 11 12 12 13 14 15 16 17 17 16 16 17 17 17 17 18 19 19 19 20 20 20 20 19 19 19 19 20 20 20 20 21 22 22 22 22
12 11 11 12 12 12 12 12 12 13 14 15 16 17 18 17 17 17 18 19 19 19 20 20 21 21 21 21 21 21 20 20 20 21 21 21 21 21 21 22 22 22 22
12 12 12 12 12 12 12 13 13 14 15 16 17 18 19 18 18 19 19 20 20 20 21 21 21 21 21 21 21 21 21 22 22 22 22 21 21 22 22 22 22 23 23
13 14 14 14 13 13 14 15 16 16 16 17 18 19 19 19 19 19 20 21 21 21 21 22 23 23 23 23 22 21 22 23 23 23 23 22 22 22 22 23 23 23 23
15 15 15 15 15 15 16 17 18 18 18 18 19 19 19 20 20 20 22 22 22 22 23 23 23 24 24 23 23 23 23 23 24 24 23 23 23 23 23 23 23 24 23
17 16 17 17 17 17 18 18 19 19 19 20 20 20 20 20 21 22 23 23 23 23 23 23 24 24 24 24 24 24 24 25 24 24 24 24 24 24 23 23 24 24 23
19 19 19 19 18 19 20 20 20 21 21 21 21 21 22 22 22 23 24 24 25 25 24 24 25 25 25 25 25 24 25 25 25 25 24 24 25 25 24 24 24 23 23
20 21 20 20 21 21 21 22 22 23 23 23 23 23 24 24 24 24 25 25 25 25 25 25 25 25 26 26 25 25 25 24 25 25 25 25 25 25 24 24 24 23 24
22 22 22 22 22 23 23 23 24 24 24 25 25 26 26 25 25 25 25 25 25 25 25 25 25 26 26 27 26 25 25 24 25 24 24 24 25 25 25 25 24 24 24
25 25 24 24 25 25 25 25 26 26 26 26 26 27 26 25 25 25 25 25 26 26 26 26 26 26 27 26 26 25 25 25 25 24 24 25 24 25 25 25 25 25 25
26 26 26 26 27 27 27 27 27 27 27 27 27 27 26 25 25 25 25 25 25 26 26 26 27 27 26 27 26 25 25 24 25 25 25 25 25 25 25 25 25 25 25
27 27 27 28 28 28 28 28 28 28 28 28 28 26 25 25 25 26 26 26 25 25 26 27 27 27 26 26 26 26 25 25 25 24 25 25 25 25 25 25 25 25 25
29 28 28 29 29 29 29 30 29 29 29 29 27 25 25 25 25 26 26 26 26 26 27 27 27 26 26 26 26 26 26 26 25 25 25 25 25 25 25 25 25 26 25
31 30 30 29 29 30 31 31 31 30 29 28 27 26 26 26 27 27 27 27 27 27 28 28 28 28 28 27 27 27 26 26 26 26 26 26 26 26 26 26 25 25 25
31 31 31 31 31 31 31 31 31 30 29 29 29 28 28 27 28 28 28 28 28 28 29 29 29 29 29 29 29 28 27 27 27 27 26 26 25 26 26 26 26 26 26
31 31 31 31 31 31 32 31 30 30 30 30 30 29 29 29 29 29 30 29 29 29 29 30 30 30 30 29 29 29 28 28 27 27 27 27 27 26 26 26 26 26 26
Wind_Direction
18 8 354 343 331 324 318 311 305 307 314 319 322 321 321 323 327 328 328 323 320 313 296 289 294 297 300 296 291 286 283 286 283 278 280 276 276 277 278 276 275 273 269
3 356 351 346 338 328 319 316 309 306 307 309 314 318 318 319 323 329 331 328 322 316 304 292 292 292 296 294 293 290 288 287 285 281 281 279 276 276 277 276 273 271 271
351 350 342 342 342 335 322 310 307 309 307 303 302 310 318 320 323 326 327 326 322 314 301 297 295 291 290 292 293 292 289 287 283 280 280 278 277 277 276 275 269 270 272
346 343 337 331 326 324 319 312 309 310 311 309 308 311 312 312 315 318 320 319 316 309 301 292 289 288 287 288 289 289 289 288 283 280 278 277 276 275 273 273 270 272 272
338 336 332 328 323 319 313 310 308 306 307 309 310 312 311 310 312 313 312 311 309 305 298 293 288 286 288 288 287 288 288 288 284 279 279 282 279 276 274 272 271 273 273
331 329 328 326 323 317 313 310 306 303 306 310 310 313 315 312 313 312 312 310 309 306 301 291 292 290 289 290 291 291 288 287 286 282 281 282 280 278 278 276 275 273 274
325 322 321 322 319 314 314 312 310 307 306 308 310 312 314 311 311 310 310 311 308 306 301 297 295 293 288 289 291 292 291 287 285 283 281 281 280 279 279 277 275 272 272
326 325 321 321 317 311 311 310 309 306 309 312 310 310 312 311 308 308 306 305 304 304 301 296 294 291 289 288 288 289 288 285 284 284 283 282 280 279 279 276 275 273 272
329 324 322 321 317 315 314 310 305 305 311 314 310 308 309 308 305 304 307 307 302 300 300 298 296 296 293 289 288 287 286 284 284 284 285 283 281 281 279 276 275 275 273
326 323 320 316 315 315 314 310 308 305 308 309 305 304 306 304 303 299 300 302 301 297 296 298 297 295 293 290 290 289 288 286 286 284 284 285 282 281 279 276 275 275 275
319 319 318 314 313 312 312 310 308 304 305 306 304 304 303 300 300 298 300 300 299 297 296 296 295 292 291 289 288 287 285 285 286 285 283 283 282 282 280 277 276 276 276
325 321 320 319 319 316 314 311 307 303 303 305 304 302 300 298 299 299 298 299 299 298 299 299 296 292 290 289 290 288 285 285 285 284 282 282 281 280 279 278 277 278 276
326 324 320 318 314 310 308 307 307 304 302 302 302 302 300 298 297 298 299 299 300 299 299 300 301 296 290 290 292 289 286 285 286 285 281 279 278 277 277 278 277 277 276
321 320 315 311 307 306 305 305 306 305 302 301 302 303 302 299 296 297 299 299 298 299 299 299 297 298 294 293 293 290 286 284 284 284 282 279 278 278 277 277 278 278 275
316 315 312 308 306 305 303 302 303 303 302 301 301 302 301 299 296 296 298 297 297 296 298 298 298 297 297 295 293 291 288 285 283 282 282 281 281 280 278 279 279 279 274
311 312 311 307 304 302 301 299 300 300 301 299 298 299 300 298 297 296 297 297 297 296 296 298 298 297 297 296 295 292 290 288 284 282 283 283 282 282 279 278 278 278 276
306 306 306 306 304 301 300 298 298 298 297 298 299 297 296 297 298 298 297 297 297 297 296 297 298 297 296 296 296 295 293 291 287 284 281 281 281 281 279 279 278 276 275
302 302 303 304 303 301 300 298 298 297 299 297 297 296 296 296 298 299 299 298 297 297 297 298 298 297 296 294 294 294 293 289 287 286 281 280 280 279 279 278 276 274 274
299 298 300 300 300 299 298 298 297 296 296 297 297 296 295 295 296 298 298 298 298 297 296 295 296 297 297 296 294 293 292 290 289 288 287 284 280 278 277 278 275 273 273
297 297 296 296 296 295 295 295 295 295 294 295 294 294 293 293 295 297 297 297 297 297 296 296 296 296 297 296 294 291 291 290 288 288 288 287 284 282 280 278 275 274 272
296 295 295 294 294 293 293 293 293 294 294 294 293 293 293 293 295 296 297 298 297 297 297 296 296 295 296 296 294 292 291 290 289 288 287 286 286 284 282 278 274 273 272
294 294 293 293 292 292 292 292 292 293 292 293 293 293 292 293 293 294 295 296 297 297 297 296 296 296 296 296 295 293 293 291 288 288 288 288 288 287 284 280 276 273 272
291 292 291 291 291 291 291 290 290 291 292 293 293 293 294 293 294 294 294 294 295 296 298 298 297 297 297 296 294 294 294 292 290 288 287 288 288 288 285 281 276 273 270
289 289 289 291 292 292 291 291 291 290 288 289 290 291 292 291 291 293 295 296 297 297 297 296 295 295 295 295 294 294 294 294 293 292 291 290 289 287 283 281 278 276 272
287 288 289 291 292 291 292 293 291 289 286 286 286 288 288 289 289 290 292 294 296 295 296 295 295 294 294 293 293 293 293 293 293 293 292 290 288 286 284 281 277 274 272
288 289 291 292 293 294 293 292 290 288 287 285 285 286 287 288 289 290 291 292 293 294 294 294 295 294 295 292 291 290 291 291 291 290 289 288 287 285 283 279 276 272 271
Height
5900 5899 5898 5897 5896 5895 5895 5894 5894 5893 5892 5890 5889 5889 5888 5887 5885 5884 5882 5881 5879 5878 5877 5877 5876 5876 5875 5874 5874 5873 5872 5872 5871 5870 5869 5868 5867 5867 5866 5865 5865 5864 5864
5899 5898 5897 5896 5895 5894 5894 5893 5892 5891 5890 5889 5888 5887 5886 5885 5884 5882 5881 5879 5878 5876 5875 5875 5874 5874 5873 5872 5872 5871 5870 5869 5868 5867 5866 5865 5864 5864 5863 5862 5861 5861 5861
5898 5897 5896 5895 5894 5893 5892 5891 5891 5890 5889 5888 5887 5885 5884 5883 5882 5881 5879 5878 5876 5875 5874 5873 5872 5871 5871 5870 5869 5868 5867 5865 5864 5863 5863 5862 5861 5860 5859 5858 5858 5857 5857
5897 5896 5895 5894 5892 5891 5890 5890 5889 5888 5887 5886 5885 5884 5883 5881 5880 5879 5878 5876 5875 5874 5872 5870 5870 5869 5868 5867 5866 5865 5864 5862 5861 5860 5859 5858 5857 5856 5855 5855 5854 5854 5853
5895 5894 5893 5892 5890 5889 5888 5887 5886 5885 5885 5884 5883 5882 5880 5879 5878 5877 5875 5874 5873 5871 5869 5868 5867 5866 5865 5863 5862 5861 5860 5859 5857 5856 5855 5854 5853 5852 5851 5850 5850 5850 5850
5894 5893 5891 5890 5888 5887 5886 5885 5884 5883 5882 5881 5880 5879 5878 5876 5875 5874 5873 5871 5869 5868 5866 5864 5864 5863 5861 5860 5859 5857 5856 5855 5853 5852 5851 5850 5849 5848 5848 5847 5846 5846 5846
5892 5891 5889 5887 5886 5885 5884 5883 5882 5881 5880 5879 5878 5876 5875 5874 5873 5871 5870 5868 5866 5865 5863 5862 5861 5859 5858 5857 5855 5854 5852 5851 5849 5848 5847 5846 5845 5844 5843 5843 5842 5842 5841
5890 5889 5887 5886 5884 5883 5882 5881 5879 5878 5877 5876 5875 5874 5873 5872 5869 5868 5867 5865 5863 5862 5860 5858 5857 5855 5854 5852 5851 5849 5848 5846 5845 5844 5842 5841 5841 5840 5839 5838 5838 5837 5836
5888 5887 5885 5884 5882 5881 5880 5878 5877 5876 5874 5873 5872 5871 5870 5868 5867 5865 5863 5861 5860 5858 5856 5854 5852 5851 5849 5848 5846 5845 5843 5841 5840 5839 5837 5836 5835 5834 5834 5833 5833 5832 5831
5886 5885 5883 5882 5880 5879 5877 5875 5874 5873 5872 5870 5869 5867 5866 5865 5863 5862 5860 5858 5856 5854 5853 5851 5849 5847 5845 5843 5842 5840 5838 5836 5835 5834 5832 5831 5830 5829 5828 5827 5827 5826 5825
5884 5883 5881 5879 5878 5876 5874 5872 5871 5870 5868 5867 5865 5863 5862 5860 5858 5857 5856 5854 5852 5850 5848 5846 5844 5842 5840 5838 5836 5834 5832 5831 5830 5828 5827 5826 5825 5823 5822 5821 5821 5820 5819
5882 5880 5878 5877 5875 5873 5871 5870 5868 5867 5865 5863 5861 5859 5858 5856 5854 5852 5851 5849 5847 5845 5843 5840 5838 5836 5834 5832 5830 5828 5827 5825 5824 5822 5821 5820 5819 5818 5817 5816 5815 5814 5813
5880 5877 5876 5874 5872 5870 5868 5866 5865 5863 5861 5859 5857 5855 5853 5851 5849 5847 5846 5843 5841 5840 5837 5835 5832 5830 5828 5826 5824 5822 5821 5819 5818 5816 5814 5813 5812 5811 5811 5810 5808 5807 5807
5877 5875 5872 5871 5869 5867 5865 5863 5861 5859 5856 5854 5852 5850 5848 5846 5844 5842 5840 5838 5836 5834 5832 5829 5827 5824 5821 5819 5817 5816 5814 5813 5811 5810 5808 5806 5805 5804 5803 5803 5802 5801 5800
5874 5871 5869 5867 5865 5863 5861 5859 5857 5854 5852 5850 5848 5845 5843 5841 5838 5836 5834 5832 5831 5829 5826 5823 5821 5818 5815 5813 5811 5809 5808 5806 5804 5803 5801 5800 5799 5797 5796 5796 5795 5794 5793
5869 5867 5865 5862 5860 5858 5856 5854 5852 5850 5848 5845 5843 5840 5838 5835 5833 5831 5828 5826 5824 5822 5820 5817 5815 5812 5809 5807 5805 5802 5801 5799 5797 5796 5795 5793 5792 5791 5790 5789 5788 5787 5786
5865 5862 5860 5857 5855 5853 5851 5849 5847 5844 5842 5840 5838 5835 5833 5830 5827 5825 5822 5820 5817 5815 5813 5811 5808 5805 5803 5800 5798 5796 5794 5792 5790 5788 5787 5786 5785 5784 5783 5782 5781 5780 5779
5859 5857 5854 5852 5850 5847 5845 5843 5841 5838 5836 5834 5832 5829 5827 5824 5821 5818 5816 5813 5810 5808 5806 5804 5801 5799 5796 5794 5791 5789 5787 5785 5783 5781 5780 5779 5778 5777 5776 5774 5773 5773 5772
5853 5851 5849 5846 5844 5841 5839 5837 5834 5832 5830 5828 5825 5823 5820 5817 5814 5811 5809 5806 5804 5801 5799 5797 5794 5791 5789 5786 5784 5782 5780 5778 5776 5774 5772 5771 5770 5769 5768 5767 5766 5766 5765
5847 5845 5842 5840 5837 5835 5832 5830 5827 5825 5823 5820 5818 5815 5813 5810 5807 5804 5802 5799 5797 5794 5792 5789 5787 5784 5781 5778 5776 5774 5772 5770 5768 5766 5765 5764 5762 5761 5760 5759 5759 5758 5758
5840 5837 5835 5832 5830 5827 5825 5822 5820 5818 5815 5813 5810 5807 5805 5803 5800 5798 5795 5792 5790 5787 5784 5782 5779 5777 5774 5771 5768 5766 5764 5763 5761 5759 5758 5757 5755 5754 5753 5752 5751 5750 5750
5833 5830 5827 5825 5822 5820 5817 5814 5812 5810 5807 5804 5802 5799 5797 5795 5793 5791 5788 5785 5783 5780 5777 5774 5772 5769 5766 5764 5761 5759 5757 5756 5754 5753 5751 5750 5748 5747 5745 5744 5743 5742 5742
5825 5822 5820 5817 5814 5811 5809 5806 5803 5801 5799 5796 5794 5792 5790 5788 5785 5783 5780 5778 5775 5772 5770 5767 5764 5762 5759 5757 5755 5752 5750 5749 5747 5745 5744 5743 5741 5740 5738 5736 5735 5734 5734
5817 5814 5811 5808 5806 5803 5800 5797 5795 5793 5790 5788 5786 5784 5782 5779 5777 5775 5772 5770 5767 5765 5762 5759 5757 5754 5752 5750 5748 5745 5743 5741 5740 5738 5736 5735 5733 5732 5730 5728 5727 5726 5726
5808 5805 5802 5799 5797 5794 5791 5788 5786 5783 5781 5779 5777 5775 5773 5771 5769 5767 5764 5762 5759 5756 5754 5751 5749 5746 5744 5742 5740 5738 5736 5734 5732 5731 5729 5727 5726 5724 5722 5720 5719 5718 5717
5799 5795 5793 5791 5788 5785 5782 5779 5777 5774 5772 5770 5768 5766 5764 5763 5760 5758 5756 5754 5751 5748 5745 5743 5741 5738 5736 5733 5731 5729 5728 5726 5724 5723 5721 5720 5718 5716 5714 5712 5710 5709 5709